Home   Weather   Drøbak   Past weeks

Flag for Norway Past Weather in Drøbak, Norway — Yesterday and Last 2 Weeks

Now
52 °F

Light rain. Passing clouds.


Feels Like: 46 °F
Forecast: 50 / 60 °F
Wind: 22 mph from Southeast

Location: Statfjord B

Current Time: Sep 29, 2016 at 12:14:00 AM

Latest Report: Sep 28, 2016 at 11:50 PM


Visibility: 6 mi

Pressure: 29.45 "Hg

Humidity: 88%

Dew Point: 48 °F

Location of DrøbakLocation

Past Weather in Drøbak — Graph

°F

Drøbak Temperature Yesterday

Maximum temperature yesterday: 54 °F (at 12:20 AM)
Minimum temperature yesterday: 50 °F (at 12:50 PM)
Average temperature yesterday: 51 °F

High & Low Weather Summary for the Past Weeks

 TemperatureHumidityPressure
High70 °F (Sep 16, 6:20 AM)100% (Sep 13, 10:20 PM)30.21 "Hg (Sep 13, 10:20 PM)
Low50 °F (Sep 14, 6:50 AM)60% (Sep 16, 6:20 AM)29.33 "Hg (Sep 27, 11:20 PM)
Average56 °F90%29.93 "Hg
* Reported Sep 13 10:20 PM — Sep 28 10:50 PM, Drøbak, Weather by CustomWeather, © 2016

Note: Actual official high and low records may vary slightly from our data, if they occured in-between our weather recording intervals... More about our weather records

Advertising

Drøbak Weather History for the Previous 24 Hours

Scroll right to see more
 ConditionsComfort  
Time TempWeatherWind HumidityBarometerVisibility
10:50 PM
Wed, Sep 28
52 °FOvercast.18 mph82%29.50 "HgN/A
10:20 PM50 °FDrizzle. Overcast.16 mph88%29.53 "Hg5 mi
9:50 PM52 °FPassing clouds.15 mph77%29.56 "HgN/A
9:20 PM50 °FPassing clouds.13 mph82%29.62 "HgN/A
8:50 PM50 °FPassing clouds.10 mph76%29.62 "HgN/A
8:20 PM50 °FPartly cloudy.9 mph76%29.65 "HgN/A
7:50 PM50 °FPartly cloudy.9 mph76%29.65 "HgN/A
7:20 PM50 °FOvercast.10 mph71%29.68 "HgN/A
6:50 PM50 °FPartly sunny.5 mph71%29.68 "HgN/A
6:20 PM50 °FPartly sunny.5 mph67%29.68 "HgN/A
5:50 PM50 °FOvercast.9 mph67%29.71 "HgN/A
5:20 PM50 °FOvercast.13 mph67%29.71 "HgN/A
4:50 PM50 °FOvercast.13 mph71%29.71 "HgN/A
4:20 PM50 °FPartly sunny.13 mph71%29.71 "HgN/A
3:50 PM50 °FPartly sunny.14 mph76%29.71 "HgN/A
3:20 PM50 °FPartly sunny.16 mph76%29.71 "HgN/A
2:50 PM50 °FPartly sunny.21 mph76%29.71 "HgN/A
2:20 PM50 °FPartly sunny.23 mph71%29.71 "HgN/A
1:20 PM52 °FPartly sunny.21 mph82%29.68 "HgN/A
12:50 PM50 °FSprinkles. Partly sunny.24 mph88%29.68 "HgN/A
12:20 PM52 °FPartly sunny.28 mph82%29.68 "HgN/A
11:50 AM52 °FPartly sunny.29 mph82%29.65 "HgN/A
11:20 AM52 °FPartly sunny.29 mph77%29.62 "HgN/A
10:50 AM52 °FPartly sunny.31 mph77%29.62 "HgN/A
10:20 AM52 °FBroken clouds.31 mph88%29.59 "HgN/A
9:50 AM54 °FPartly sunny.28 mph82%29.59 "HgN/A
9:20 AM54 °FPartly sunny.28 mph82%29.56 "HgN/A
8:50 AM54 °FPartly sunny.25 mph88%29.53 "HgN/A
8:20 AM52 °FPartly sunny.29 mph88%29.50 "HgN/A
7:50 AM52 °FPartly sunny.26 mph88%29.47 "HgN/A
7:20 AM52 °FPartly sunny.28 mph88%29.45 "HgN/A
6:50 AM52 °FPassing clouds.28 mph88%29.45 "HgN/A
6:20 AM52 °FPassing clouds.29 mph88%29.42 "HgN/A
5:50 AM52 °FPassing clouds.29 mph88%29.42 "HgN/A
5:20 AM52 °FLight rain. Passing clouds.30 mph94%29.39 "Hg6 mi
4:50 AM52 °FPassing clouds.30 mph94%29.39 "HgN/A
4:20 AM52 °FPassing clouds.25 mph94%29.36 "HgN/A
3:50 AM54 °FPassing clouds.29 mph88%29.36 "HgN/A
3:20 AM52 °FSprinkles. Passing clouds.33 mph94%29.33 "HgN/A
2:50 AM54 °FPassing clouds.39 mph88%29.33 "HgN/A
1:50 AM52 °FLight rain. Partly cloudy.43 mph94%29.33 "Hg6 mi
1:20 AM52 °FSprinkles. Fog.44 mph94%29.33 "Hg3 mi
12:50 AM52 °FSprinkles. Passing clouds.47 mph94%29.33 "Hg5 mi
12:20 AM54 °FSprinkles. Overcast.46 mph88%29.33 "Hg5 mi
Weather by CustomWeather, © 2016

See weather overviewHow to use our weather pages